Year,Month,Day,Hour,Minute,Value (Times are PST for insolation in W/m^2)
2008,01,28,00,00,0.00
2008,01,28,00,01,0.00
2008,01,28,00,02,0.00
2008,01,28,00,03,0.00
2008,01,28,00,04,0.00
2008,01,28,00,05,0.00
2008,01,28,00,06,0.00
2008,01,28,00,07,0.00
2008,01,28,00,08,0.00
2008,01,28,00,09,0.00
2008,01,28,00,10,0.00
2008,01,28,00,11,0.00
2008,01,28,00,12,0.00
2008,01,28,00,13,0.00
2008,01,28,00,14,0.00
2008,01,28,00,15,0.00
2008,01,28,00,16,0.00
2008,01,28,00,17,0.00
2008,01,28,00,18,0.00
2008,01,28,00,19,0.00
2008,01,28,00,20,0.00
2008,01,28,00,21,0.00
2008,01,28,00,22,0.00
2008,01,28,00,23,0.00
2008,01,28,00,24,0.00
2008,01,28,00,25,0.00
2008,01,28,00,26,0.00
2008,01,28,00,27,0.00
2008,01,28,00,28,0.00
2008,01,28,00,29,0.00
2008,01,28,00,30,0.00
2008,01,28,00,31,0.00
2008,01,28,00,32,0.00
2008,01,28,00,33,0.00
2008,01,28,00,34,0.00
2008,01,28,00,35,0.00
2008,01,28,00,36,0.00
2008,01,28,00,37,0.00
2008,01,28,00,38,0.00
2008,01,28,00,39,0.00
2008,01,28,00,40,0.00
2008,01,28,00,41,0.00
2008,01,28,00,42,0.00
2008,01,28,00,43,0.00
2008,01,28,00,44,0.00
2008,01,28,00,45,0.00
2008,01,28,00,46,0.00
2008,01,28,00,47,0.00
2008,01,28,00,48,0.00
2008,01,28,00,49,0.00
2008,01,28,00,50,0.00
2008,01,28,00,51,0.00
2008,01,28,00,52,0.00
2008,01,28,00,53,0.00
2008,01,28,00,54,0.00
2008,01,28,00,55,0.00
2008,01,28,00,56,0.00
2008,01,28,00,57,0.00
2008,01,28,00,58,0.00
2008,01,28,00,59,0.00
2008,01,28,01,00,0.00
2008,01,28,01,01,0.00
2008,01,28,01,02,0.00
2008,01,28,01,03,0.00
2008,01,28,01,04,0.00
2008,01,28,01,05,0.00
2008,01,28,01,06,0.00
2008,01,28,01,07,0.00
2008,01,28,01,08,0.00
2008,01,28,01,09,0.00
2008,01,28,01,10,0.00
2008,01,28,01,11,0.00
2008,01,28,01,12,0.00
2008,01,28,01,13,0.00
2008,01,28,01,14,0.00
2008,01,28,01,15,0.00
2008,01,28,01,16,0.00
2008,01,28,01,17,0.00
2008,01,28,01,18,0.00
2008,01,28,01,19,0.00
2008,01,28,01,20,0.00
2008,01,28,01,21,0.00
2008,01,28,01,22,0.00
2008,01,28,01,23,0.00
2008,01,28,01,24,0.00
2008,01,28,01,25,0.00
2008,01,28,01,26,0.00
2008,01,28,01,27,0.00
2008,01,28,01,28,0.00
2008,01,28,01,29,0.00
2008,01,28,01,30,0.00
2008,01,28,01,31,0.00
2008,01,28,01,32,0.00
2008,01,28,01,33,0.00
2008,01,28,01,34,0.00
2008,01,28,01,35,0.00
2008,01,28,01,36,0.00
2008,01,28,01,37,0.00
2008,01,28,01,38,0.00
2008,01,28,01,39,0.00
2008,01,28,01,40,0.00
2008,01,28,01,41,0.00
2008,01,28,01,42,0.00
2008,01,28,01,43,0.00
2008,01,28,01,44,0.00
2008,01,28,01,45,0.00
2008,01,28,01,46,0.00
2008,01,28,01,47,0.00
2008,01,28,01,48,0.00
2008,01,28,01,49,0.00
2008,01,28,01,50,0.00
2008,01,28,01,51,0.00
2008,01,28,01,52,0.00
2008,01,28,01,53,0.00
2008,01,28,01,54,0.00
2008,01,28,01,55,0.00
2008,01,28,01,56,0.00
2008,01,28,01,57,0.00
2008,01,28,01,58,0.00
2008,01,28,01,59,0.00
2008,01,28,02,00,0.00
2008,01,28,02,01,0.00
2008,01,28,02,02,0.00
2008,01,28,02,03,0.00
2008,01,28,02,04,0.00
2008,01,28,02,05,0.00
2008,01,28,02,06,0.00
2008,01,28,02,07,0.00
2008,01,28,02,08,0.00
2008,01,28,02,09,0.00
2008,01,28,02,10,0.00
2008,01,28,02,11,0.00
2008,01,28,02,12,0.00
2008,01,28,02,13,0.00
2008,01,28,02,14,0.00
2008,01,28,02,15,0.00
2008,01,28,02,16,0.00
2008,01,28,02,17,0.00
2008,01,28,02,18,0.00
2008,01,28,02,19,0.00
2008,01,28,02,20,0.00
2008,01,28,02,21,0.00
2008,01,28,02,22,0.00
2008,01,28,02,23,0.00
2008,01,28,02,24,0.00
2008,01,28,02,25,0.00
2008,01,28,02,26,0.00
2008,01,28,02,27,0.00
2008,01,28,02,28,0.00
2008,01,28,02,29,0.00
2008,01,28,02,30,0.00
2008,01,28,02,31,0.00
2008,01,28,02,32,0.00
2008,01,28,02,33,0.00
2008,01,28,02,34,0.00
2008,01,28,02,35,0.00
2008,01,28,02,36,0.00
2008,01,28,02,37,0.00
2008,01,28,02,38,0.00
2008,01,28,02,39,0.00
2008,01,28,02,40,0.00
2008,01,28,02,41,0.00
2008,01,28,02,42,0.00
2008,01,28,02,43,0.00
2008,01,28,02,44,0.00
2008,01,28,02,45,0.00
2008,01,28,02,46,0.00
2008,01,28,02,47,0.00
2008,01,28,02,48,0.00
2008,01,28,02,49,0.00
2008,01,28,02,50,0.00
2008,01,28,02,51,0.00
2008,01,28,02,52,0.00
2008,01,28,02,53,0.00
2008,01,28,02,54,0.00
2008,01,28,02,55,0.00
2008,01,28,02,56,0.00
2008,01,28,02,57,0.00
2008,01,28,02,58,0.00
2008,01,28,02,59,0.00
2008,01,28,03,00,0.00
2008,01,28,03,01,0.00
2008,01,28,03,02,0.00
2008,01,28,03,03,0.00
2008,01,28,03,04,0.00
2008,01,28,03,05,0.00
2008,01,28,03,06,0.00
2008,01,28,03,07,0.00
2008,01,28,03,08,0.00
2008,01,28,03,09,0.00
2008,01,28,03,10,0.00
2008,01,28,03,11,0.00
2008,01,28,03,12,0.00
2008,01,28,03,13,0.00
2008,01,28,03,14,0.00
2008,01,28,03,15,0.00
2008,01,28,03,16,0.00
2008,01,28,03,17,0.00
2008,01,28,03,18,0.00
2008,01,28,03,19,0.00
2008,01,28,03,20,0.00
2008,01,28,03,21,0.00
2008,01,28,03,22,0.00
2008,01,28,03,23,0.00
2008,01,28,03,24,0.00
2008,01,28,03,25,0.00
2008,01,28,03,26,0.00
2008,01,28,03,27,0.00
2008,01,28,03,28,0.00
2008,01,28,03,29,0.00
2008,01,28,03,30,0.00
2008,01,28,03,31,0.00
2008,01,28,03,32,0.00
2008,01,28,03,33,0.00
2008,01,28,03,34,0.00
2008,01,28,03,35,0.00
2008,01,28,03,36,0.00
2008,01,28,03,37,0.00
2008,01,28,03,38,0.00
2008,01,28,03,39,0.00
2008,01,28,03,40,0.00
2008,01,28,03,41,0.00
2008,01,28,03,42,0.00
2008,01,28,03,43,0.00
2008,01,28,03,44,0.00
2008,01,28,03,45,0.00
2008,01,28,03,46,0.00
2008,01,28,03,47,0.00
2008,01,28,03,48,0.00
2008,01,28,03,49,0.00
2008,01,28,03,50,0.00
2008,01,28,03,51,0.00
2008,01,28,03,52,0.00
2008,01,28,03,53,0.00
2008,01,28,03,54,0.00
2008,01,28,03,55,0.00
2008,01,28,03,56,0.00
2008,01,28,03,57,0.00
2008,01,28,03,58,0.00
2008,01,28,03,59,0.00
2008,01,28,04,00,0.00
2008,01,28,04,01,0.00
2008,01,28,04,02,0.00
2008,01,28,04,03,0.00
2008,01,28,04,04,0.00
2008,01,28,04,05,0.00
2008,01,28,04,06,0.00
2008,01,28,04,07,0.00
2008,01,28,04,08,0.00
2008,01,28,04,09,0.00
2008,01,28,04,10,0.00
2008,01,28,04,11,0.00
2008,01,28,04,12,0.00
2008,01,28,04,13,0.00
2008,01,28,04,14,0.00
2008,01,28,04,15,0.00
2008,01,28,04,16,0.00
2008,01,28,04,17,0.00
2008,01,28,04,18,0.00
2008,01,28,04,19,0.00
2008,01,28,04,20,0.00
2008,01,28,04,21,0.00
2008,01,28,04,22,0.00
2008,01,28,04,23,0.00
2008,01,28,04,24,0.00
2008,01,28,04,25,0.00
2008,01,28,04,26,0.00
2008,01,28,04,27,0.00
2008,01,28,04,28,0.00
2008,01,28,04,29,0.00
2008,01,28,04,30,0.00
2008,01,28,04,31,0.00
2008,01,28,04,32,0.00
2008,01,28,04,33,0.00
2008,01,28,04,34,0.00
2008,01,28,04,35,0.00
2008,01,28,04,36,0.00
2008,01,28,04,37,0.00
2008,01,28,04,38,0.00
2008,01,28,04,39,0.00
2008,01,28,04,40,0.00
2008,01,28,04,41,0.00
2008,01,28,04,42,0.00
2008,01,28,04,43,0.00
2008,01,28,04,44,0.00
2008,01,28,04,45,0.00
2008,01,28,04,46,0.00
2008,01,28,04,47,0.00
2008,01,28,04,48,0.00
2008,01,28,04,49,0.00
2008,01,28,04,50,0.00
2008,01,28,04,51,0.00
2008,01,28,04,52,0.00
2008,01,28,04,53,0.00
2008,01,28,04,54,0.00
2008,01,28,04,55,0.00
2008,01,28,04,56,0.00
2008,01,28,04,57,0.00
2008,01,28,04,58,0.00
2008,01,28,04,59,0.00
2008,01,28,05,00,0.00
2008,01,28,05,01,0.00
2008,01,28,05,02,0.00
2008,01,28,05,03,0.00
2008,01,28,05,04,0.00
2008,01,28,05,05,0.00
2008,01,28,05,06,0.00
2008,01,28,05,07,0.00
2008,01,28,05,08,0.00
2008,01,28,05,09,0.00
2008,01,28,05,10,0.00
2008,01,28,05,11,0.00
2008,01,28,05,12,0.00
2008,01,28,05,13,0.00
2008,01,28,05,14,0.00
2008,01,28,05,15,0.00
2008,01,28,05,16,0.00
2008,01,28,05,17,0.00
2008,01,28,05,18,0.00
2008,01,28,05,19,0.00
2008,01,28,05,20,0.00
2008,01,28,05,21,0.00
2008,01,28,05,22,0.00
2008,01,28,05,23,0.00
2008,01,28,05,24,0.00
2008,01,28,05,25,0.00
2008,01,28,05,26,0.00
2008,01,28,05,27,0.00
2008,01,28,05,28,0.00
2008,01,28,05,29,0.00
2008,01,28,05,30,0.00
2008,01,28,05,31,0.00
2008,01,28,05,32,0.00
2008,01,28,05,33,0.00
2008,01,28,05,34,0.00
2008,01,28,05,35,0.00
2008,01,28,05,36,0.00
2008,01,28,05,37,0.00
2008,01,28,05,38,0.00
2008,01,28,05,39,0.00
2008,01,28,05,40,0.00
2008,01,28,05,41,0.00
2008,01,28,05,42,0.00
2008,01,28,05,43,0.00
2008,01,28,05,44,0.00
2008,01,28,05,45,0.00
2008,01,28,05,46,0.00
2008,01,28,05,47,0.00
2008,01,28,05,48,0.00
2008,01,28,05,49,0.00
2008,01,28,05,50,0.00
2008,01,28,05,51,0.00
2008,01,28,05,52,0.00
2008,01,28,05,53,0.00
2008,01,28,05,54,0.00
2008,01,28,05,55,0.00
2008,01,28,05,56,0.00
2008,01,28,05,57,0.00
2008,01,28,05,58,0.00
2008,01,28,05,59,0.00
2008,01,28,06,00,0.00
2008,01,28,06,01,0.00
2008,01,28,06,02,0.00
2008,01,28,06,03,0.00
2008,01,28,06,04,0.00
2008,01,28,06,05,0.00
2008,01,28,06,06,0.00
2008,01,28,06,07,0.00
2008,01,28,06,08,0.00
2008,01,28,06,09,0.00
2008,01,28,06,10,0.00
2008,01,28,06,11,0.00
2008,01,28,06,12,0.00
2008,01,28,06,13,0.00
2008,01,28,06,14,0.00
2008,01,28,06,15,0.00
2008,01,28,06,16,0.00
2008,01,28,06,17,0.00
2008,01,28,06,18,0.00
2008,01,28,06,19,0.00
2008,01,28,06,20,0.00
2008,01,28,06,21,0.00
2008,01,28,06,22,0.00
2008,01,28,06,23,0.00
2008,01,28,06,24,0.00
2008,01,28,06,25,0.00
2008,01,28,06,26,0.00
2008,01,28,06,27,0.00
2008,01,28,06,28,0.00
2008,01,28,06,29,0.00
2008,01,28,06,30,0.00
2008,01,28,06,31,0.00
2008,01,28,06,32,0.00
2008,01,28,06,33,0.00
2008,01,28,06,34,0.00
2008,01,28,06,35,0.00
2008,01,28,06,36,0.00
2008,01,28,06,37,0.00
2008,01,28,06,38,0.00
2008,01,28,06,39,0.00
2008,01,28,06,40,0.00
2008,01,28,06,41,0.00
2008,01,28,06,42,0.00
2008,01,28,06,43,0.00
2008,01,28,06,44,0.00
2008,01,28,06,45,0.00
2008,01,28,06,46,0.00
2008,01,28,06,47,0.00
2008,01,28,06,48,0.00
2008,01,28,06,49,0.00
2008,01,28,06,50,0.00
2008,01,28,06,51,0.00
2008,01,28,06,52,0.00
2008,01,28,06,53,0.00
2008,01,28,06,54,0.00
2008,01,28,06,55,0.00
2008,01,28,06,56,0.00
2008,01,28,06,57,0.00
2008,01,28,06,58,0.00
2008,01,28,06,59,0.00
2008,01,28,07,00,0.00
2008,01,28,07,01,0.00
2008,01,28,07,02,0.00
2008,01,28,07,03,0.00
2008,01,28,07,04,0.00
2008,01,28,07,05,0.00
2008,01,28,07,06,0.00
2008,01,28,07,07,0.00
2008,01,28,07,08,0.00
2008,01,28,07,09,0.00
2008,01,28,07,10,0.00
2008,01,28,07,11,0.00
2008,01,28,07,12,0.00
2008,01,28,07,13,0.00
2008,01,28,07,14,0.00
2008,01,28,07,15,0.00
2008,01,28,07,16,0.00
2008,01,28,07,17,0.00
2008,01,28,07,18,0.00
2008,01,28,07,19,0.00
2008,01,28,07,20,0.00
2008,01,28,07,21,0.00
2008,01,28,07,22,0.00
2008,01,28,07,23,0.00
2008,01,28,07,24,0.00
2008,01,28,07,25,0.00
2008,01,28,07,26,0.00
2008,01,28,07,27,0.00
2008,01,28,07,28,0.00
2008,01,28,07,29,0.00
2008,01,28,07,30,0.00
2008,01,28,07,31,0.00
2008,01,28,07,32,0.00
2008,01,28,07,33,0.00
2008,01,28,07,34,0.00
2008,01,28,07,35,0.00
2008,01,28,07,36,0.00
2008,01,28,07,37,0.00
2008,01,28,07,38,0.00
2008,01,28,07,39,0.00
2008,01,28,07,40,0.00
2008,01,28,07,41,0.00
2008,01,28,07,42,0.00
2008,01,28,07,43,0.00
2008,01,28,07,44,0.00
2008,01,28,07,45,0.00
2008,01,28,07,46,0.00
2008,01,28,07,47,0.00
2008,01,28,07,48,0.00
2008,01,28,07,49,0.00
2008,01,28,07,50,0.00
2008,01,28,07,51,2.60
2008,01,28,07,52,5.00
2008,01,28,07,53,5.00
2008,01,28,07,54,5.00
2008,01,28,07,55,5.00
2008,01,28,07,56,5.80
2008,01,28,07,57,7.00
2008,01,28,07,58,7.00
2008,01,28,07,59,7.00
2008,01,28,08,00,7.20
2008,01,28,08,01,9.00
2008,01,28,08,02,9.00
2008,01,28,08,03,10.10
2008,01,28,08,04,11.00
2008,01,28,08,05,11.00
2008,01,28,08,06,12.00
2008,01,28,08,07,12.00
2008,01,28,08,08,12.00
2008,01,28,08,09,12.00
2008,01,28,08,10,12.00
2008,01,28,08,11,12.00
2008,01,28,08,12,12.30
2008,01,28,08,13,14.00
2008,01,28,08,14,14.00
2008,01,28,08,15,14.00
2008,01,28,08,16,14.00
2008,01,28,08,17,14.00
2008,01,28,08,18,14.00
2008,01,28,08,19,14.70
2008,01,28,08,20,16.00
2008,01,28,08,21,16.00
2008,01,28,08,22,16.00
2008,01,28,08,23,16.00
2008,01,28,08,24,16.40
2008,01,28,08,25,18.00
2008,01,28,08,26,18.00
2008,01,28,08,27,18.00
2008,01,28,08,28,18.00
2008,01,28,08,29,18.90
2008,01,28,08,30,19.00
2008,01,28,08,31,19.70
2008,01,28,08,32,23.10
2008,01,28,08,33,27.00
2008,01,28,08,34,26.30
2008,01,28,08,35,23.00
2008,01,28,08,36,23.80
2008,01,28,08,37,37.10
2008,01,28,08,38,49.00
2008,01,28,08,39,46.80
2008,01,28,08,40,34.40
2008,01,28,08,41,23.00
2008,01,28,08,42,23.00
2008,01,28,08,43,23.00
2008,01,28,08,44,23.00
2008,01,28,08,45,23.00
2008,01,28,08,46,23.00
2008,01,28,08,47,23.30
2008,01,28,08,48,26.80
2008,01,28,08,49,34.20
2008,01,28,08,50,37.00
2008,01,28,08,51,35.50
2008,01,28,08,52,32.20
2008,01,28,08,53,26.00
2008,01,28,08,54,26.60
2008,01,28,08,55,28.90
2008,01,28,08,56,30.00
2008,01,28,08,57,30.00
2008,01,28,08,58,31.90
2008,01,28,08,59,32.40
2008,01,28,09,00,30.00
2008,01,28,09,01,30.00
2008,01,28,09,02,31.30
2008,01,28,09,03,32.00
2008,01,28,09,04,32.00
2008,01,28,09,05,31.60
2008,01,28,09,06,30.00
2008,01,28,09,07,30.00
2008,01,28,09,08,31.30
2008,01,28,09,09,32.00
2008,01,28,09,10,33.20
2008,01,28,09,11,49.80
2008,01,28,09,12,72.20
2008,01,28,09,13,78.50
2008,01,28,09,14,63.00
2008,01,28,09,15,51.80
2008,01,28,09,16,51.60
2008,01,28,09,17,83.80
2008,01,28,09,18,115.60
2008,01,28,09,19,107.30
2008,01,28,09,20,82.30
2008,01,28,09,21,57.50
2008,01,28,09,22,43.80
2008,01,28,09,23,36.40
2008,01,28,09,24,35.00
2008,01,28,09,25,37.20
2008,01,28,09,26,57.20
2008,01,28,09,27,87.40
2008,01,28,09,28,84.00
2008,01,28,09,29,81.60
2008,01,28,09,30,66.30
2008,01,28,09,31,47.60
2008,01,28,09,32,44.00
2008,01,28,09,33,46.50
2008,01,28,09,34,47.90
2008,01,28,09,35,73.50
2008,01,28,09,36,72.90
2008,01,28,09,37,58.80
2008,01,28,09,38,57.50
2008,01,28,09,39,55.90
2008,01,28,09,40,51.00
2008,01,28,09,41,50.40
2008,01,28,09,42,49.00
2008,01,28,09,43,49.00
2008,01,28,09,44,52.00
2008,01,28,09,45,77.20
2008,01,28,09,46,155.30
2008,01,28,09,47,186.90
2008,01,28,09,48,176.70
2008,01,28,09,49,164.20
2008,01,28,09,50,158.40
2008,01,28,09,51,158.70
2008,01,28,09,52,163.80
2008,01,28,09,53,153.60
2008,01,28,09,54,123.50
2008,01,28,09,55,83.60
2008,01,28,09,56,76.20
2008,01,28,09,57,122.30
2008,01,28,09,58,126.40
2008,01,28,09,59,81.90
2008,01,28,10,00,71.60
2008,01,28,10,01,76.30
2008,01,28,10,02,63.20
2008,01,28,10,03,45.50
2008,01,28,10,04,61.60
2008,01,28,10,05,131.50
2008,01,28,10,06,206.50
2008,01,28,10,07,227.60
2008,01,28,10,08,204.30
2008,01,28,10,09,154.90
2008,01,28,10,10,85.40
2008,01,28,10,11,56.90
2008,01,28,10,12,59.20
2008,01,28,10,13,53.70
2008,01,28,10,14,103.70
2008,01,28,10,15,140.50
2008,01,28,10,16,282.20
2008,01,28,10,17,271.50
2008,01,28,10,18,281.00
2008,01,28,10,19,303.50
2008,01,28,10,20,317.30
2008,01,28,10,21,322.00
2008,01,28,10,22,315.40
2008,01,28,10,23,274.00
2008,01,28,10,24,220.00
2008,01,28,10,25,169.70
2008,01,28,10,26,135.20
2008,01,28,10,27,103.60
2008,01,28,10,28,102.90
2008,01,28,10,29,140.50
2008,01,28,10,30,148.20
2008,01,28,10,31,121.90
2008,01,28,10,32,109.50
2008,01,28,10,33,85.10
2008,01,28,10,34,72.80
2008,01,28,10,35,108.00
2008,01,28,10,36,106.50
2008,01,28,10,37,73.20
2008,01,28,10,38,47.20
2008,01,28,10,39,48.50
2008,01,28,10,40,58.10
2008,01,28,10,41,113.40
2008,01,28,10,42,216.00
2008,01,28,10,43,275.00
2008,01,28,10,44,329.70
2008,01,28,10,45,354.50
2008,01,28,10,46,359.00
2008,01,28,10,47,360.60
2008,01,28,10,48,362.00
2008,01,28,10,49,363.70
2008,01,28,10,50,366.00
2008,01,28,10,51,366.30
2008,01,28,10,52,367.90
2008,01,28,10,53,369.00
2008,01,28,10,54,370.40
2008,01,28,10,55,372.80
2008,01,28,10,56,371.30
2008,01,28,10,57,373.30
2008,01,28,10,58,374.90
2008,01,28,10,59,377.20
2008,01,28,11,00,378.00
2008,01,28,11,01,379.80
2008,01,28,11,02,380.20
2008,01,28,11,03,381.00
2008,01,28,11,04,382.10
2008,01,28,11,05,384.30
2008,01,28,11,06,386.50
2008,01,28,11,07,386.90
2008,01,28,11,08,385.40
2008,01,28,11,09,387.00
2008,01,28,11,10,387.00
2008,01,28,11,11,389.00
2008,01,28,11,12,370.80
2008,01,28,11,13,391.60
2008,01,28,11,14,390.80
2008,01,28,11,15,375.60
2008,01,28,11,16,342.80
2008,01,28,11,17,378.50
2008,01,28,11,18,390.00
2008,01,28,11,19,395.10
2008,01,28,11,20,443.70
2008,01,28,11,21,456.80
2008,01,28,11,22,453.10
2008,01,28,11,23,414.10
2008,01,28,11,24,405.80
2008,01,28,11,25,400.50
2008,01,28,11,26,428.80
2008,01,28,11,27,487.20
2008,01,28,11,28,505.10
2008,01,28,11,29,504.50
2008,01,28,11,30,497.90
2008,01,28,11,31,495.20
2008,01,28,11,32,484.40
2008,01,28,11,33,454.60
2008,01,28,11,34,455.90
2008,01,28,11,35,482.00
2008,01,28,11,36,323.00
2008,01,28,11,37,317.20
2008,01,28,11,38,422.90
2008,01,28,11,39,376.00
2008,01,28,11,40,324.40
2008,01,28,11,41,286.30
2008,01,28,11,42,290.90
2008,01,28,11,43,403.00
2008,01,28,11,44,403.00
2008,01,28,11,45,416.00
2008,01,28,11,46,398.10
2008,01,28,11,47,380.00
2008,01,28,11,48,492.40
2008,01,28,11,49,496.20
2008,01,28,11,50,513.00
2008,01,28,11,51,513.00
2008,01,28,11,52,513.00
2008,01,28,11,53,225.00
2008,01,28,11,54,139.60
2008,01,28,11,55,137.00
2008,01,28,11,56,141.40
2008,01,28,11,57,148.50
2008,01,28,11,58,147.10
2008,01,28,11,59,142.60
2008,01,28,12,00,134.90
2008,01,28,12,01,128.80
2008,01,28,12,02,125.00
2008,01,28,12,03,126.60
2008,01,28,12,04,132.60
2008,01,28,12,05,146.10
2008,01,28,12,06,212.10
2008,01,28,12,07,170.80
2008,01,28,12,08,201.00
2008,01,28,12,09,186.20
2008,01,28,12,10,211.60
2008,01,28,12,11,229.00
2008,01,28,12,12,284.40
2008,01,28,12,13,285.80
2008,01,28,12,14,310.90
2008,01,28,12,15,330.00
2008,01,28,12,16,330.00
2008,01,28,12,17,341.60
2008,01,28,12,18,255.00
2008,01,28,12,19,319.40
2008,01,28,12,20,311.00
2008,01,28,12,21,311.00
2008,01,28,12,22,311.00
2008,01,28,12,23,309.10
2008,01,28,12,24,268.40
2008,01,28,12,25,246.00
2008,01,28,12,26,335.10
2008,01,28,12,27,390.80
2008,01,28,12,28,289.20
2008,01,28,12,29,220.10
2008,01,28,12,30,263.00
2008,01,28,12,31,313.40
2008,01,28,12,32,290.00
2008,01,28,12,33,317.60
2008,01,28,12,34,315.00
2008,01,28,12,35,327.30
2008,01,28,12,36,438.00
2008,01,28,12,37,382.00
2008,01,28,12,38,247.80
2008,01,28,12,39,197.70
2008,01,28,12,40,239.60
2008,01,28,12,41,239.30
2008,01,28,12,42,113.00
2008,01,28,12,43,106.00
2008,01,28,12,44,109.00
2008,01,28,12,45,248.10
2008,01,28,12,46,248.60
2008,01,28,12,47,245.00
2008,01,28,12,48,338.00
2008,01,28,12,49,362.00
2008,01,28,12,50,362.00
2008,01,28,12,51,362.00
2008,01,28,12,52,287.70
2008,01,28,12,53,251.70
2008,01,28,12,54,95.20
2008,01,28,12,55,95.30
2008,01,28,12,56,122.20
2008,01,28,12,57,137.00
2008,01,28,12,58,137.00
2008,01,28,12,59,162.40
2008,01,28,13,00,264.00
2008,01,28,13,01,264.00
2008,01,28,13,02,214.20
2008,01,28,13,03,181.00
2008,01,28,13,04,181.10
2008,01,28,13,05,179.80
2008,01,28,13,06,162.60
2008,01,28,13,07,154.00
2008,01,28,13,08,149.60
2008,01,28,13,09,144.50
2008,01,28,13,10,147.90
2008,01,28,13,11,153.60
2008,01,28,13,12,157.90
2008,01,28,13,13,163.50
2008,01,28,13,14,163.10
2008,01,28,13,15,160.40
2008,01,28,13,16,156.10
2008,01,28,13,17,151.90
2008,01,28,13,18,145.60
2008,01,28,13,19,139.90
2008,01,28,13,20,140.40
2008,01,28,13,21,145.00
2008,01,28,13,22,148.80
2008,01,28,13,23,178.00
2008,01,28,13,24,190.00
2008,01,28,13,25,193.50
2008,01,28,13,26,201.90
2008,01,28,13,27,276.40
2008,01,28,13,28,242.00
2008,01,28,13,29,291.20
2008,01,28,13,30,339.50
2008,01,28,13,31,394.00
2008,01,28,13,32,262.40
2008,01,28,13,33,208.70
2008,01,28,13,34,224.40
2008,01,28,13,35,265.20
2008,01,28,13,36,282.80
2008,01,28,13,37,223.10
2008,01,28,13,38,203.00
2008,01,28,13,39,200.20
2008,01,28,13,40,196.20
2008,01,28,13,41,192.70
2008,01,28,13,42,191.10
2008,01,28,13,43,181.90
2008,01,28,13,44,160.20
2008,01,28,13,45,135.30
2008,01,28,13,46,115.40
2008,01,28,13,47,102.60
2008,01,28,13,48,98.00
2008,01,28,13,49,103.40
2008,01,28,13,50,115.20
2008,01,28,13,51,133.90
2008,01,28,13,52,151.90
2008,01,28,13,53,162.00
2008,01,28,13,54,158.50
2008,01,28,13,55,152.50
2008,01,28,13,56,145.80
2008,01,28,13,57,142.10
2008,01,28,13,58,142.00
2008,01,28,13,59,142.70
2008,01,28,14,00,148.50
2008,01,28,14,01,160.80
2008,01,28,14,02,172.60
2008,01,28,14,03,181.50
2008,01,28,14,04,187.00
2008,01,28,14,05,190.80
2008,01,28,14,06,190.90
2008,01,28,14,07,182.50
2008,01,28,14,08,172.60
2008,01,28,14,09,161.70
2008,01,28,14,10,153.50
2008,01,28,14,11,147.80
2008,01,28,14,12,143.20
2008,01,28,14,13,136.60
2008,01,28,14,14,130.80
2008,01,28,14,15,124.40
2008,01,28,14,16,119.70
2008,01,28,14,17,114.70
2008,01,28,14,18,111.80
2008,01,28,14,19,112.50
2008,01,28,14,20,113.80
2008,01,28,14,21,113.00
2008,01,28,14,22,112.40
2008,01,28,14,23,111.00
2008,01,28,14,24,111.00
2008,01,28,14,25,112.50
2008,01,28,14,26,113.00
2008,01,28,14,27,112.60
2008,01,28,14,28,111.00
2008,01,28,14,29,110.10
2008,01,28,14,30,106.00
2008,01,28,14,31,100.80
2008,01,28,14,32,99.90
2008,01,28,14,33,98.00
2008,01,28,14,34,98.00
2008,01,28,14,35,99.00
2008,01,28,14,36,100.00
2008,01,28,14,37,103.20
2008,01,28,14,38,107.60
2008,01,28,14,39,115.50
2008,01,28,14,40,123.40
2008,01,28,14,41,126.00
2008,01,28,14,42,120.20
2008,01,28,14,43,109.20
2008,01,28,14,44,104.10
2008,01,28,14,45,104.80
2008,01,28,14,46,103.30
2008,01,28,14,47,99.20
2008,01,28,14,48,88.10
2008,01,28,14,49,76.00
2008,01,28,14,50,58.10
2008,01,28,14,51,49.80
2008,01,28,14,52,45.20
2008,01,28,14,53,44.00
2008,01,28,14,54,47.40
2008,01,28,14,55,49.00
2008,01,28,14,56,49.60
2008,01,28,14,57,54.60
2008,01,28,14,58,57.10
2008,01,28,14,59,53.00
2008,01,28,15,00,49.50
2008,01,28,15,01,52.60
2008,01,28,15,02,55.20
2008,01,28,15,03,48.80
2008,01,28,15,04,43.10
2008,01,28,15,05,42.00
2008,01,28,15,06,40.50
2008,01,28,15,07,40.00
2008,01,28,15,08,40.40
2008,01,28,15,09,42.00
2008,01,28,15,10,42.90
2008,01,28,15,11,45.80
2008,01,28,15,12,51.80
2008,01,28,15,13,56.00
2008,01,28,15,14,64.50
2008,01,28,15,15,73.80
2008,01,28,15,16,85.50
2008,01,28,15,17,94.40
2008,01,28,15,18,99.20
2008,01,28,15,19,99.80
2008,01,28,15,20,97.40
2008,01,28,15,21,93.40
2008,01,28,15,22,89.50
2008,01,28,15,23,84.80
2008,01,28,15,24,79.80
2008,01,28,15,25,76.20
2008,01,28,15,26,75.50
2008,01,28,15,27,74.00
2008,01,28,15,28,71.70
2008,01,28,15,29,67.90
2008,01,28,15,30,63.80
2008,01,28,15,31,60.00
2008,01,28,15,32,59.50
2008,01,28,15,33,57.20
2008,01,28,15,34,54.30
2008,01,28,15,35,48.80
2008,01,28,15,36,42.80
2008,01,28,15,37,38.10
2008,01,28,15,38,32.10
2008,01,28,15,39,28.30
2008,01,28,15,40,25.40
2008,01,28,15,41,25.00
2008,01,28,15,42,25.90
2008,01,28,15,43,28.80
2008,01,28,15,44,34.90
2008,01,28,15,45,39.00
2008,01,28,15,46,37.70
2008,01,28,15,47,34.10
2008,01,28,15,48,30.20
2008,01,28,15,49,25.80
2008,01,28,15,50,25.00
2008,01,28,15,51,25.00
2008,01,28,15,52,22.60
2008,01,28,15,53,21.00
2008,01,28,15,54,19.10
2008,01,28,15,55,18.80
2008,01,28,15,56,18.00
2008,01,28,15,57,18.00
2008,01,28,15,58,18.00
2008,01,28,15,59,18.80
2008,01,28,16,00,19.00
2008,01,28,16,01,19.40
2008,01,28,16,02,20.20
2008,01,28,16,03,19.00
2008,01,28,16,04,19.00
2008,01,28,16,05,20.70
2008,01,28,16,06,23.10
2008,01,28,16,07,25.00
2008,01,28,16,08,25.40
2008,01,28,16,09,26.00
2008,01,28,16,10,27.40
2008,01,28,16,11,29.70
2008,01,28,16,12,30.30
2008,01,28,16,13,33.60
2008,01,28,16,14,36.60
2008,01,28,16,15,39.00
2008,01,28,16,16,39.00
2008,01,28,16,17,37.30
2008,01,28,16,18,36.70
2008,01,28,16,19,35.00
2008,01,28,16,20,34.20
2008,01,28,16,21,33.00
2008,01,28,16,22,32.20
2008,01,28,16,23,32.00
2008,01,28,16,24,29.60
2008,01,28,16,25,28.00
2008,01,28,16,26,27.10
2008,01,28,16,27,26.00
2008,01,28,16,28,26.00
2008,01,28,16,29,26.00
2008,01,28,16,30,25.90
2008,01,28,16,31,25.00
2008,01,28,16,32,25.00
2008,01,28,16,33,25.00
2008,01,28,16,34,25.80
2008,01,28,16,35,26.00
2008,01,28,16,36,26.40
2008,01,28,16,37,28.00
2008,01,28,16,38,28.00
2008,01,28,16,39,28.00
2008,01,28,16,40,28.00
2008,01,28,16,41,27.80
2008,01,28,16,42,26.00
2008,01,28,16,43,25.60
2008,01,28,16,44,25.00
2008,01,28,16,45,23.70
2008,01,28,16,46,21.40
2008,01,28,16,47,20.80
2008,01,28,16,48,19.00
2008,01,28,16,49,19.00
2008,01,28,16,50,18.50
2008,01,28,16,51,18.00
2008,01,28,16,52,16.40
2008,01,28,16,53,15.70
2008,01,28,16,54,14.00
2008,01,28,16,55,13.20
2008,01,28,16,56,11.40
2008,01,28,16,57,11.00
2008,01,28,16,58,9.30
2008,01,28,16,59,6.70
2008,01,28,17,00,5.00
2008,01,28,17,01,5.00
2008,01,28,17,02,5.00
2008,01,28,17,03,1.20
2008,01,28,17,04,0.00
2008,01,28,17,05,0.00
2008,01,28,17,06,0.00
2008,01,28,17,07,0.00
2008,01,28,17,08,0.00
2008,01,28,17,09,0.00
2008,01,28,17,10,0.00
2008,01,28,17,11,0.00
2008,01,28,17,12,0.00
2008,01,28,17,13,0.00
2008,01,28,17,14,0.00
2008,01,28,17,15,0.00
2008,01,28,17,16,0.00
2008,01,28,17,17,0.00
2008,01,28,17,18,0.00
2008,01,28,17,19,0.00
2008,01,28,17,20,0.00
2008,01,28,17,21,0.00
2008,01,28,17,22,0.00
2008,01,28,17,23,0.00
2008,01,28,17,24,0.00
2008,01,28,17,25,0.00
2008,01,28,17,26,0.00
2008,01,28,17,27,0.00
2008,01,28,17,28,0.00
2008,01,28,17,29,0.00